• In Hungary
  • List of Countries
  • For 7 days
  • Water Temperature
  • Satellite Maps
  • Weather Map
  • News
  • Weather Widgets
  • user-avatar
    Login

    Hourly Weather Slupia

    Today, 16 January, Tuesday

    Time Temperature Precipitation Wind Pressure Humidity
    00:00 -8°C° 0 mm 4 mps 736 mmHg 57%
    01:00 -7°C° 0 mm 3 mps 735 mmHg 59%
    02:00 -7°C° 0 mm 3 mps 734 mmHg 60%
    03:00 -8°C° 0 mm 4 mps 733 mmHg 61%
    04:00 -8°C° 0 mm 4 mps 732 mmHg 62%
    05:00 -8°C° 0 mm 4 mps 731 mmHg 62%
    06:00 -8°C° 0 mm 4 mps 730 mmHg 63%
    07:00 -8°C° 0 mm 4 mps 729 mmHg 63%
    08:00 -7°C° 0 mm 4 mps 729 mmHg 62%
    09:00 -7°C° 0 mm 5 mps 728 mmHg 62%
    10:00 -6°C° 0 mm 5 mps 727 mmHg 61%
    11:00 -5°C° 0.1 mm 5 mps 727 mmHg 61%
    12:00 -4°C° 0.1 mm 5 mps 726 mmHg 61%
    13:00 -2°C° 0 mm 4 mps 725 mmHg 60%
    14:00 -2°C° 0 mm 4 mps 724 mmHg 63%
    15:00 -2°C° 0 mm 4 mps 723 mmHg 65%
    16:00 -3°C° 0 mm 4 mps 723 mmHg 68%
    17:00 -3°C° 0 mm 4 mps 722 mmHg 71%
    18:00 -4°C° 0 mm 5 mps 721 mmHg 74%
    19:00 -4°C° 0 mm 5 mps 721 mmHg 77%
    20:00 -2°C° 0.5 mm 5 mps 720 mmHg 79%
    21:00 -3°C° 0.5 mm 6 mps 720 mmHg 81%
    22:00 -2°C° 0.5 mm 7 mps 719 mmHg 83%
    23:00 -2°C° 0.4 mm 7 mps 719 mmHg 82%

    Tomorrow, 17 January, Wednesday

    Time Temperature Precipitation Wind Pressure Humidity
    00:00 -2°C° 0.4 mm 7 mps 719 mmHg 81%
    01:00 -2°C° 0.4 mm 8 mps 719 mmHg 79%
    02:00 -2°C° 0 mm 7 mps 719 mmHg 80%
    03:00 -3°C° 0 mm 7 mps 719 mmHg 80%
    04:00 -3°C° 0 mm 6 mps 719 mmHg 81%
    05:00 -3°C° 0 mm 6 mps 719 mmHg 82%
    06:00 -4°C° 0 mm 5 mps 719 mmHg 82%
    07:00 -4°C° 0 mm 5 mps 719 mmHg 83%
    08:00 -2°C° 0 mm 5 mps 719 mmHg 82%
    09:00 -2°C° 0 mm 5 mps 719 mmHg 80%
    10:00 -1°C° 0 mm 5 mps 719 mmHg 79%
    11:00 -1°C° 0 mm 4 mps 719 mmHg 78%
    12:00 -1°C° 0 mm 4 mps 719 mmHg 78%
    13:00 0°C° 0 mm 4 mps 719 mmHg 77%
    14:00 0°C° 0 mm 3 mps 720 mmHg 80%
    15:00 -1°C° 0 mm 3 mps 720 mmHg 83%
    16:00 -1°C° 0 mm 3 mps 720 mmHg 86%
    17:00 -2°C° 0.6 mm 4 mps 721 mmHg 87%
    18:00 -2°C° 0.6 mm 4 mps 721 mmHg 87%
    19:00 -2°C° 0.6 mm 5 mps 722 mmHg 88%
    20:00 -2°C° 0.2 mm 5 mps 722 mmHg 87%
    21:00 -3°C° 0.2 mm 6 mps 723 mmHg 86%
    22:00 -4°C° 0.2 mm 6 mps 723 mmHg 85%
    23:00 -4°C° 0 mm 6 mps 724 mmHg 84%

    Day after tomorrow, 18 January, Thursday

    Time Temperature Precipitation Wind Pressure Humidity
    00:00 -4°C° 0 mm 6 mps 724 mmHg 84%
    01:00 -4°C° 0 mm 6 mps 725 mmHg 83%
    02:00 -5°C° 0 mm 5 mps 725 mmHg 84%
    03:00 -5°C° 0 mm 5 mps 726 mmHg 84%
    04:00 -5°C° 0 mm 5 mps 726 mmHg 85%
    05:00 -5°C° 0 mm 5 mps 726 mmHg 86%
    06:00 -4°C° 0 mm 5 mps 727 mmHg 86%
    07:00 -4°C° 0 mm 5 mps 727 mmHg 87%
    08:00 -4°C° 0.2 mm 5 mps 728 mmHg 86%
    09:00 -2°C° 0.2 mm 5 mps 728 mmHg 85%
    10:00 -2°C° 0.2 mm 5 mps 728 mmHg 84%
    11:00 -2°C° 0.1 mm 5 mps 728 mmHg 83%
    12:00 -1°C° 0.1 mm 5 mps 727 mmHg 81%
    13:00 -1°C° 0.1 mm 4 mps 727 mmHg 80%
    14:00 -1°C° 0.1 mm 4 mps 726 mmHg 81%
    15:00 -2°C° 0.1 mm 4 mps 725 mmHg 82%
    16:00 -2°C° 0.1 mm 4 mps 725 mmHg 83%
    17:00 -2°C° 0.4 mm 5 mps 724 mmHg 83%
    18:00 -3°C° 0.4 mm 6 mps 723 mmHg 84%
    19:00 -3°C° 0.4 mm 6 mps 722 mmHg 85%
    20:00 -2°C° 0.5 mm 6 mps 721 mmHg 85%
    21:00 -1°C° 0.5 mm 7 mps 720 mmHg 86%
    22:00 0°C° 0.5 mm 7 mps 719 mmHg 86%
    23:00 -1°C° 0.4 mm 7 mps 719 mmHg 85%

    19 January, Friday

    Time Temperature Precipitation Wind Pressure Humidity
    00:00 -1°C° 0.4 mm 7 mps 718 mmHg 83%
    01:00 -1°C° 0.4 mm 8 mps 718 mmHg 82%
    02:00 -1°C° 0 mm 8 mps 718 mmHg 80%
    03:00 -3°C° 0 mm 9 mps 719 mmHg 79%
    04:00 -4°C° 0 mm 9 mps 719 mmHg 77%
    05:00 -4°C° 0 mm 9 mps 720 mmHg 78%
    06:00 -4°C° 0 mm 8 mps 721 mmHg 80%
    07:00 -4°C° 0 mm 8 mps 722 mmHg 81%
    08:00 -4°C° 0.1 mm 8 mps 723 mmHg 82%
    09:00 -3°C° 0.1 mm 7 mps 723 mmHg 82%
    10:00 -3°C° 0.1 mm 6 mps 724 mmHg 82%
    11:00 -3°C° 0 mm 6 mps 725 mmHg 81%
    12:00 -3°C° 0 mm 6 mps 725 mmHg 81%
    13:00 -2°C° 0 mm 5 mps 726 mmHg 80%
    14:00 -2°C° 0 mm 4 mps 726 mmHg 83%
    15:00 -2°C° 0 mm 3 mps 726 mmHg 86%
    16:00 -2°C° 0 mm 2 mps 727 mmHg 88%
    17:00 -2°C° 0 mm 2 mps 727 mmHg 89%
    18:00 -3°C° 0 mm 2 mps 728 mmHg 90%
    19:00 -1°C° 0 mm 1 mps 728 mmHg 91%
    20:00 -1°C° 0 mm 1 mps 729 mmHg 91%
    21:00 -1°C° 0 mm 1 mps 729 mmHg 91%
    22:00 -2°C° 0 mm 1 mps 730 mmHg 91%
    23:00 -2°C° 0 mm 1 mps 730 mmHg 91%

    20 January, Saturday

    Time Temperature Precipitation Wind Pressure Humidity
    00:00 -1°C° 0 mm 1 mps 730 mmHg 92%
    01:00 -1°C° 0 mm 1 mps 730 mmHg 92%
    02:00 -2°C° 0 mm 1 mps 730 mmHg 92%
    03:00 -2°C° 0 mm 1 mps 730 mmHg 93%
    04:00 -2°C° 0 mm 1 mps 730 mmHg 94%
    05:00 -2°C° 0 mm 1 mps 730 mmHg 94%
    06:00 -2°C° 0 mm 1 mps 730 mmHg 94%
    07:00 -2°C° 0 mm 1 mps 730 mmHg 94%
    08:00 -1°C° 0 mm 1 mps 730 mmHg 92%
    09:00 -1°C° 0 mm 1 mps 730 mmHg 90%
    10:00 0°C° 0 mm 1 mps 730 mmHg 88%
    11:00 0°C° 0 mm 1 mps 730 mmHg 87%
    12:00 +1°C° 0 mm 1 mps 730 mmHg 86%
    13:00 +1°C° 0 mm 1 mps 730 mmHg 84%
    14:00 +1°C° 0 mm 1 mps 730 mmHg 86%
    15:00 0°C° 0 mm 1 mps 730 mmHg 88%
    16:00 -1°C° 0 mm 1 mps 730 mmHg 90%
    17:00 -1°C° 0 mm 1 mps 730 mmHg 91%
    18:00 -1°C° 0 mm 1 mps 730 mmHg 91%
    19:00 -2°C° 0 mm 1 mps 730 mmHg 92%
    20:00 -2°C° 0 mm 1 mps 730 mmHg 92%
    21:00 -2°C° 0 mm 1 mps 730 mmHg 92%
    22:00 -2°C° 0 mm 1 mps 731 mmHg 92%
    23:00 -2°C° 0 mm 1 mps 731 mmHg 93%

    21 January, Sunday

    Time Temperature Precipitation Wind Pressure Humidity
    00:00 -2°C° 0 mm 1 mps 731 mmHg 93%
    01:00 -3°C° 0 mm 1 mps 731 mmHg 93%
    02:00 -3°C° 0 mm 1 mps 731 mmHg 93%
    03:00 -3°C° 0 mm 1 mps 731 mmHg 93%
    04:00 -3°C° 0 mm 1 mps 732 mmHg 93%
    05:00 -3°C° 0 mm 1 mps 732 mmHg 93%
    06:00 -3°C° 0 mm 1 mps 732 mmHg 93%
    07:00 -3°C° 0 mm 1 mps 732 mmHg 93%
    08:00 -3°C° 0 mm 1 mps 733 mmHg 91%
    09:00 -2°C° 0 mm 1 mps 733 mmHg 90%
    10:00 -1°C° 0 mm 1 mps 733 mmHg 88%
    11:00 -3°C° 0 mm 2 mps 733 mmHg 87%
    12:00 -2°C° 0 mm 2 mps 733 mmHg 86%
    13:00 -2°C° 0 mm 3 mps 733 mmHg 85%
    14:00 -2°C° 0 mm 3 mps 734 mmHg 86%
    15:00 -2°C° 0 mm 3 mps 734 mmHg 86%
    16:00 -2°C° 0 mm 3 mps 734 mmHg 87%
    17:00 -4°C° 0.1 mm 3 mps 735 mmHg 88%
    18:00 -4°C° 0.1 mm 3 mps 735 mmHg 88%
    19:00 -4°C° 0.1 mm 3 mps 736 mmHg 88%
    20:00 -4°C° 0.1 mm 3 mps 736 mmHg 89%
    21:00 -4°C° 0.1 mm 3 mps 736 mmHg 89%
    22:00 -4°C° 0.1 mm 3 mps 736 mmHg 89%
    23:00 -5°C° 0 mm 3 mps 737 mmHg 90%
    Show more